QPF
0.00 0.00 0.00 0.00 0.00 0.00 0.00 0.00 0.00 0.01 0.01 0.03 0.02 0.01 0.00 0.00 0.00 0.00 0.01 0.04 0.02 0.03 0.10 0.14 0.23 0.26 0.16 0.03 0.00 0.00 0.00 0.00 0.00 0.00 0.00 0.00 0.00 0.00 0.00 0.00 0.00 0.00 0.00
0.00 0.00 0.00 0.00 0.00 0.00 0.00 0.00 0.01 0.01 0.02 0.03 0.03 0.02 0.00 0.01 0.01 0.01 0.00 0.00 0.01 0.01 0.02 0.06 0.16 0.21 0.21 0.12 0.02 0.00 0.00 0.00 0.00 0.00 0.00 0.00 0.00 0.00 0.00 0.00 0.00 0.00 0.00
0.00 0.00 0.00 0.00 0.00 0.00 0.00 0.00 0.00 0.00 0.00 0.02 0.02 0.02 0.01 0.00 0.01 0.01 0.03 0.05 0.02 0.01 0.01 0.00 0.02 0.12 0.15 0.10 0.06 0.02 0.00 0.00 0.00 0.00 0.01 0.01 0.01 0.00 0.00 0.00 0.00 0.00 0.00
0.00 0.00 0.00 0.00 0.00 0.00 0.00 0.00 0.00 0.00 0.00 0.00 0.01 0.02 0.01 0.01 0.01 0.02 0.04 0.04 0.05 0.02 0.00 0.00 0.01 0.03 0.04 0.05 0.07 0.07 0.04 0.01 0.01 0.00 0.00 0.01 0.01 0.00 0.00 0.00 0.00 0.00 0.00
0.00 0.00 0.00 0.00 0.00 0.00 0.00 0.00 0.00 0.00 0.00 0.00 0.00 0.01 0.02 0.03 0.02 0.02 0.04 0.08 0.10 0.08 0.06 0.05 0.05 0.03 0.03 0.03 0.07 0.10 0.11 0.08 0.08 0.05 0.04 0.04 0.02 0.00 0.00 0.00 0.00 0.00 0.00
0.00 0.00 0.00 0.00 0.00 0.00 0.00 0.00 0.00 0.00 0.00 0.00 0.00 0.01 0.01 0.03 0.09 0.05 0.06 0.07 0.13 0.16 0.17 0.13 0.09 0.09 0.08 0.04 0.02 0.04 0.08 0.10 0.14 0.11 0.08 0.04 0.02 0.00 0.00 0.00 0.00 0.00 0.00
0.00 0.00 0.00 0.00 0.00 0.00 0.00 0.00 0.00 0.00 0.00 0.00 0.00 0.00 0.00 0.01 0.06 0.09 0.11 0.12 0.15 0.14 0.14 0.14 0.11 0.08 0.04 0.04 0.02 0.02 0.06 0.10 0.08 0.06 0.03 0.01 0.01 0.00 0.00 0.00 0.00 0.00 0.00
0.00 0.00 0.00 0.00 0.00 0.00 0.00 0.00 0.02 0.04 0.05 0.05 0.04 0.04 0.03 0.03 0.06 0.06 0.20 0.23 0.17 0.17 0.09 0.07 0.06 0.07 0.05 0.04 0.06 0.05 0.08 0.09 0.07 0.03 0.00 0.00 0.00 0.00 0.00 0.00 0.00 0.00 0.00
0.00 0.00 0.00 0.00 0.00 0.00 0.00 0.00 0.00 0.02 0.05 0.08 0.07 0.06 0.06 0.07 0.08 0.11 0.14 0.25 0.28 0.22 0.14 0.13 0.08 0.05 0.07 0.04 0.07 0.07 0.06 0.06 0.04 0.00 0.00 0.00 0.00 0.00 0.00 0.00 0.00 0.00 0.00
0.00 0.00 0.00 0.00 0.00 0.00 0.01 0.01 0.00 0.01 0.03 0.04 0.04 0.03 0.04 0.07 0.11 0.07 0.12 0.17 0.20 0.23 0.23 0.18 0.15 0.08 0.11 0.07 0.06 0.05 0.04 0.03 0.01 0.00 0.00 0.00 0.00 0.00 0.00 0.00 0.00 0.00 0.00
0.00 0.00 0.00 0.00 0.00 0.00 0.01 0.02 0.01 0.01 0.03 0.06 0.08 0.07 0.05 0.09 0.15 0.12 0.10 0.10 0.14 0.12 0.15 0.18 0.17 0.15 0.13 0.12 0.06 0.03 0.02 0.01 0.00 0.00 0.00 0.00 0.00 0.00 0.00 0.00 0.00 0.00 0.00
0.00 0.00 0.00 0.00 0.00 0.00 0.01 0.04 0.03 0.02 0.02 0.05 0.08 0.12 0.13 0.13 0.14 0.14 0.14 0.12 0.13 0.10 0.14 0.19 0.17 0.16 0.12 0.10 0.07 0.03 0.01 0.00 0.00 0.00 0.00 0.00 0.00 0.00 0.00 0.00 0.00 0.00 0.00
0.00 0.00 0.00 0.00 0.00 0.00 0.01 0.05 0.06 0.04 0.03 0.03 0.05 0.06 0.08 0.09 0.09 0.10 0.10 0.13 0.14 0.14 0.15 0.15 0.14 0.10 0.06 0.04 0.02 0.00 0.00 0.00 0.00 0.00 0.00 0.00 0.00 0.00 0.00 0.00 0.00 0.00 0.00
0.00 0.00 0.00 0.00 0.01 0.00 0.01 0.04 0.06 0.06 0.05 0.05 0.05 0.07 0.06 0.07 0.06 0.08 0.11 0.12 0.12 0.15 0.16 0.13 0.08 0.06 0.04 0.01 0.00 0.00 0.00 0.00 0.00 0.00 0.00 0.00 0.00 0.00 0.00 0.00 0.00 0.00 0.00
0.00 0.00 0.00 0.00 0.01 0.00 0.00 0.04 0.09 0.07 0.04 0.05 0.06 0.05 0.03 0.04 0.04 0.02 0.02 0.06 0.08 0.08 0.05 0.04 0.04 0.04 0.02 0.01 0.00 0.00 0.00 0.00 0.00 0.00 0.00 0.00 0.00 0.00 0.00 0.00 0.00 0.00 0.00
0.00 0.00 0.00 0.00 0.01 0.01 0.01 0.02 0.09 0.08 0.04 0.03 0.05 0.06 0.06 0.05 0.04 0.04 0.05 0.05 0.02 0.01 0.01 0.01 0.01 0.00 0.00 0.00 0.00 0.00 0.00 0.00 0.00 0.00 0.00 0.00 0.00 0.00 0.00 0.00 0.00 0.00 0.00
0.00 0.00 0.00 0.01 0.01 0.02 0.01 0.01 0.05 0.10 0.08 0.04 0.03 0.03 0.02 0.06 0.08 0.07 0.07 0.08 0.05 0.01 0.01 0.00 0.00 0.00 0.00 0.00 0.00 0.00 0.00 0.00 0.00 0.00 0.00 0.00 0.00 0.00 0.00 0.00 0.00 0.00 0.00
0.00 0.01 0.01 0.00 0.00 0.02 0.02 0.02 0.03 0.05 0.05 0.05 0.06 0.04 0.03 0.05 0.05 0.04 0.04 0.04 0.04 0.01 0.00 0.00 0.00 0.00 0.00 0.00 0.00 0.00 0.00 0.00 0.00 0.00 0.00 0.00 0.00 0.00 0.00 0.00 0.00 0.00 0.00
0.00 0.00 0.00 0.01 0.03 0.07 0.07 0.05 0.04 0.04 0.04 0.01 0.03 0.04 0.02 0.01 0.03 0.02 0.01 0.00 0.00 0.00 0.00 0.00 0.00 0.00 0.00 0.00 0.00 0.00 0.00 0.00 0.00 0.00 0.00 0.00 0.00 0.00 0.00 0.00 0.00 0.00 0.00
0.00 0.01 0.00 0.01 0.03 0.05 0.05 0.05 0.06 0.04 0.04 0.03 0.03 0.02 0.02 0.02 0.03 0.04 0.01 0.00 0.00 0.00 0.00 0.00 0.00 0.00 0.00 0.00 0.00 0.00 0.00 0.00 0.00 0.00 0.00 0.00 0.00 0.00 0.00 0.00 0.00 0.00 0.00
0.01 0.01 0.01 0.02 0.02 0.02 0.02 0.04 0.04 0.04 0.02 0.04 0.02 0.03 0.01 0.00 0.00 0.00 0.00 0.00 0.00 0.00 0.00 0.00 0.00 0.00 0.00 0.00 0.00 0.00 0.00 0.00 0.00 0.00 0.00 0.00 0.00 0.00 0.00 0.00 0.00 0.00 0.00
0.01 0.00 0.01 0.03 0.04 0.03 0.03 0.03 0.04 0.04 0.02 0.05 0.04 0.05 0.05 0.03 0.03 0.02 0.00 0.00 0.00 0.00 0.00 0.00 0.00 0.00 0.00 0.00 0.00 0.00 0.00 0.00 0.00 0.00 0.00 0.00 0.00 0.00 0.00 0.00 0.00 0.00 0.00
0.01 0.01 0.01 0.03 0.04 0.04 0.04 0.03 0.03 0.04 0.03 0.04 0.05 0.07 0.06 0.04 0.04 0.04 0.02 0.00 0.00 0.00 0.00 0.00 0.00 0.00 0.00 0.00 0.00 0.00 0.00 0.00 0.00 0.00 0.00 0.00 0.00 0.00 0.00 0.00 0.00 0.00 0.00
0.01 0.01 0.03 0.06 0.06 0.05 0.04 0.03 0.03 0.04 0.03 0.05 0.07 0.07 0.04 0.01 0.02 0.03 0.03 0.01 0.00 0.00 0.00 0.00 0.00 0.00 0.00 0.00 0.00 0.00 0.00 0.00 0.00 0.00 0.00 0.00 0.00 0.00 0.00 0.00 0.00 0.00 0.00
0.01 0.02 0.03 0.06 0.07 0.06 0.07 0.04 0.04 0.04 0.04 0.05 0.07 0.08 0.08 0.07 0.05 0.03 0.03 0.01 0.00 0.00 0.00 0.00 0.00 0.00 0.00 0.00 0.00 0.00 0.00 0.00 0.00 0.00 0.00 0.00 0.00 0.00 0.00 0.00 0.00 0.00 0.00
0.01 0.02 0.03 0.05 0.07 0.09 0.09 0.08 0.06 0.06 0.05 0.04 0.06 0.07 0.06 0.07 0.05 0.03 0.02 0.01 0.00 0.00 0.00 0.00 0.00 0.00 0.00 0.00 0.00 0.00 0.00 0.00 0.00 0.00 0.00 0.00 0.00 0.00 0.00 0.00 0.00 0.00 0.00
MSLP
1006.41 1005.84 1005.42 1005.20 1004.68 1004.36 1003.82 1003.74 1003.63 1004.21 1003.69 1004.27 1004.71 1005.22 1005.86 1006.27 1006.58 1007.06 1007.72 1008.51 1009.28 1010.15 1010.88 1011.39 1013.23 1013.54 1015.41 1016.04 1017.07 1017.92 1019.09 1019.76 1021.86 1024.41 1025.62 1027.15 1027.98 1028.50 1029.45 1030.03 1030.29 1031.09 1031.62
1006.21 1005.90 1005.55 1005.16 1004.90 1004.39 1004.05 1004.06 1003.50 1003.86 1003.54 1003.46 1003.89 1004.41 1004.95 1005.59 1005.72 1006.20 1006.71 1007.21 1008.04 1009.22 1009.88 1010.71 1012.12 1013.03 1014.13 1015.12 1016.63 1017.43 1018.72 1019.48 1020.83 1023.15 1025.20 1026.45 1027.54 1028.24 1029.37 1030.32 1030.62 1031.41 1032.14
1006.10 1005.99 1005.64 1005.15 1004.93 1004.58 1004.40 1003.89 1003.84 1003.69 1003.53 1003.65 1003.91 1003.88 1004.08 1004.70 1004.91 1005.50 1005.65 1006.25 1007.04 1007.59 1008.73 1009.47 1010.73 1011.85 1013.72 1014.39 1015.67 1016.93 1018.35 1019.34 1021.12 1022.70 1024.33 1025.94 1027.36 1028.54 1029.58 1030.74 1031.34 1031.83 1032.43
1005.71 1005.82 1005.70 1005.52 1005.09 1004.50 1004.05 1003.74 1003.48 1003.48 1003.52 1003.56 1003.62 1003.63 1003.63 1003.94 1004.24 1004.82 1005.18 1005.60 1006.09 1006.61 1007.53 1008.51 1009.59 1010.41 1011.76 1013.35 1014.92 1016.58 1017.51 1019.26 1020.97 1022.72 1024.56 1025.29 1026.96 1028.41 1029.26 1030.29 1031.65 1031.95 1032.38
1005.47 1005.60 1005.52 1005.36 1005.11 1004.73 1004.26 1003.71 1003.27 1002.94 1002.83 1002.99 1003.12 1003.20 1003.20 1003.31 1003.53 1003.90 1004.29 1004.87 1005.19 1005.70 1006.56 1007.50 1008.45 1009.51 1009.84 1011.68 1013.68 1015.77 1017.18 1018.95 1020.93 1022.29 1024.32 1024.86 1026.67 1028.20 1029.30 1029.87 1031.16 1032.20 1032.73
1005.76 1005.88 1005.72 1005.48 1005.21 1004.77 1004.27 1003.83 1003.43 1002.90 1002.36 1002.04 1002.31 1002.48 1002.55 1002.59 1002.54 1003.14 1003.36 1003.97 1004.59 1004.90 1005.56 1006.54 1007.52 1008.81 1009.73 1011.31 1012.34 1014.24 1015.68 1017.72 1019.80 1021.17 1022.31 1023.64 1025.49 1027.09 1028.90 1029.29 1030.39 1031.99 1032.89
1005.89 1005.88 1005.84 1005.70 1005.40 1004.88 1004.46 1003.93 1003.32 1002.77 1002.21 1001.66 1001.46 1001.73 1001.86 1001.91 1002.29 1002.74 1003.16 1003.32 1003.98 1004.45 1005.20 1006.11 1007.07 1008.16 1009.28 1010.85 1012.25 1013.93 1014.97 1016.64 1017.34 1018.66 1020.92 1022.54 1024.26 1025.43 1027.32 1028.70 1030.09 1030.69 1031.68
1006.02 1006.02 1006.01 1005.83 1005.44 1004.99 1004.52 1004.03 1003.52 1002.93 1002.17 1001.48 1001.06 1001.06 1001.24 1001.33 1001.75 1002.22 1002.62 1003.02 1003.73 1003.65 1004.78 1005.37 1006.27 1008.02 1009.04 1010.65 1012.35 1013.89 1015.15 1016.88 1017.74 1017.98 1019.52 1021.18 1023.14 1025.02 1026.36 1027.60 1029.11 1030.77 1031.73
1006.01 1006.17 1006.09 1005.86 1005.46 1005.00 1004.50 1004.21 1003.81 1003.20 1002.53 1001.79 1001.22 1001.01 1001.07 1001.35 1001.67 1002.11 1002.57 1003.18 1003.52 1004.11 1004.94 1005.02 1006.06 1007.44 1008.88 1010.29 1012.16 1014.05 1015.72 1017.30 1017.88 1018.61 1019.85 1021.16 1022.63 1024.39 1025.61 1027.27 1029.15 1030.24 1031.55
1006.39 1006.34 1006.16 1005.89 1005.49 1005.09 1004.72 1004.45 1004.10 1003.67 1003.16 1002.66 1002.08 1001.76 1001.64 1001.73 1001.95 1002.16 1002.77 1003.51 1004.15 1004.90 1005.58 1005.79 1006.39 1007.47 1009.04 1010.05 1011.72 1013.83 1015.06 1017.04 1018.23 1019.83 1021.29 1022.36 1023.27 1024.46 1025.12 1026.15 1027.66 1029.03 1030.42
1006.46 1006.39 1006.19 1005.76 1005.57 1005.27 1005.02 1004.79 1004.38 1004.02 1003.68 1003.39 1003.06 1002.72 1002.56 1002.53 1002.85 1002.92 1003.24 1003.97 1004.41 1005.44 1006.44 1007.12 1007.64 1007.90 1009.21 1010.73 1011.60 1013.23 1014.99 1016.67 1018.59 1020.09 1021.69 1022.70 1023.89 1025.05 1026.01 1026.62 1027.17 1028.05 1029.50
1006.47 1006.34 1006.17 1005.75 1005.61 1005.46 1005.26 1005.07 1004.80 1004.52 1004.27 1004.08 1003.86 1003.78 1003.72 1003.76 1003.71 1003.91 1004.31 1004.41 1004.91 1005.69 1006.83 1007.62 1008.37 1009.03 1010.09 1011.41 1012.68 1014.02 1015.46 1016.79 1018.78 1020.79 1021.91 1023.47 1024.52 1025.62 1026.66 1027.44 1028.15 1029.08 1029.25
1006.46 1006.34 1006.18 1005.75 1005.46 1005.46 1005.47 1005.29 1005.16 1004.96 1004.80 1004.69 1004.58 1004.55 1004.61 1004.67 1004.70 1004.70 1004.87 1005.39 1006.03 1006.83 1007.62 1008.57 1009.57 1010.34 1011.33 1012.31 1013.51 1014.90 1015.90 1017.32 1019.20 1020.86 1022.15 1023.83 1025.20 1026.19 1027.04 1028.19 1028.99 1029.64 1029.88
1006.60 1006.31 1005.99 1005.71 1005.50 1005.32 1005.36 1005.42 1005.32 1005.25 1005.14 1005.12 1005.12 1005.15 1005.27 1005.50 1005.70 1005.99 1006.36 1006.76 1007.14 1007.93 1008.90 1009.95 1010.75 1011.57 1012.27 1013.56 1015.16 1016.13 1016.67 1018.05 1019.24 1020.45 1022.54 1024.33 1026.00 1026.74 1027.36 1027.80 1029.11 1029.79 1030.87
1006.41 1005.92 1005.62 1005.53 1005.33 1005.14 1005.16 1005.23 1005.28 1005.27 1005.19 1005.24 1005.37 1005.44 1005.59 1006.04 1006.42 1006.59 1006.93 1007.39 1007.84 1008.61 1009.87 1010.71 1011.41 1012.53 1013.80 1015.01 1016.08 1017.19 1017.93 1018.95 1020.00 1021.57 1022.86 1024.38 1026.05 1026.72 1027.70 1028.26 1028.99 1030.07 1030.81
1006.71 1006.07 1005.53 1005.19 1004.98 1004.86 1004.90 1005.02 1005.13 1005.12 1005.19 1005.36 1005.57 1005.67 1005.94 1006.24 1006.73 1007.17 1007.52 1008.02 1008.78 1009.42 1010.22 1011.23 1012.51 1013.56 1014.44 1015.43 1016.71 1018.13 1018.87 1019.39 1020.38 1021.89 1023.21 1024.40 1025.69 1026.71 1027.73 1028.71 1029.21 1029.87 1031.30
1006.99 1006.35 1005.69 1005.05 1004.68 1004.46 1004.48 1004.70 1005.04 1005.25 1005.22 1005.37 1005.75 1006.00 1006.23 1006.68 1007.16 1007.54 1008.06 1008.74 1009.40 1009.91 1010.73 1012.09 1012.92 1013.76 1015.06 1016.16 1017.18 1018.06 1018.96 1019.85 1020.59 1022.02 1023.29 1024.75 1025.90 1026.81 1027.72 1028.50 1029.32 1030.38 1031.58
1006.72 1006.12 1005.51 1004.83 1004.25 1004.05 1004.06 1004.28 1004.69 1005.09 1005.37 1005.76 1006.01 1006.16 1006.60 1007.06 1007.54 1008.08 1008.66 1009.42 1010.31 1011.02 1011.58 1012.36 1013.41 1014.48 1015.67 1016.57 1017.48 1018.15 1019.09 1020.28 1021.40 1022.42 1023.58 1024.88 1025.75 1026.49 1027.45 1028.55 1029.56 1030.13 1031.21
1006.62 1005.95 1005.45 1004.77 1004.06 1003.84 1003.88 1004.06 1004.41 1004.86 1005.31 1005.86 1006.33 1006.68 1006.88 1007.33 1007.86 1008.45 1009.12 1009.51 1010.41 1011.36 1012.20 1013.24 1014.11 1014.93 1015.84 1016.62 1017.40 1018.29 1019.22 1020.23 1021.30 1022.53 1023.72 1024.59 1025.52 1026.42 1027.64 1028.26 1029.17 1029.78 1030.52
1006.56 1005.97 1005.39 1004.82 1004.22 1003.96 1003.89 1003.98 1004.25 1004.63 1005.14 1005.67 1006.20 1006.61 1007.04 1007.62 1008.26 1008.89 1009.46 1010.09 1010.89 1011.78 1012.58 1013.50 1014.36 1015.12 1015.78 1016.55 1017.54 1018.39 1019.31 1020.45 1021.43 1022.45 1023.63 1024.61 1025.68 1026.41 1027.29 1027.97 1028.75 1029.42 1030.03
1006.55 1005.89 1005.30 1004.71 1004.28 1004.06 1003.91 1003.87 1004.00 1004.37 1004.82 1005.37 1005.91 1006.41 1006.82 1007.35 1008.16 1008.95 1009.66 1010.50 1011.13 1011.91 1012.63 1013.35 1014.17 1014.99 1015.74 1016.50 1017.24 1017.95 1018.95 1020.25 1021.38 1022.49 1023.56 1024.49 1025.28 1026.26 1026.85 1027.51 1028.38 1029.02 1029.66
1006.53 1005.84 1005.21 1004.72 1004.28 1004.08 1003.89 1003.84 1003.88 1004.11 1004.52 1005.04 1005.65 1006.24 1006.78 1007.34 1007.94 1008.66 1009.53 1010.28 1011.01 1011.67 1012.29 1013.01 1013.88 1014.57 1015.20 1015.96 1016.92 1017.98 1019.01 1020.18 1021.22 1022.13 1023.01 1024.00 1024.90 1025.63 1026.29 1027.24 1028.03 1028.73 1029.47
1006.43 1005.76 1005.10 1004.58 1004.16 1003.91 1003.81 1003.79 1003.79 1003.93 1004.27 1004.71 1005.25 1005.87 1006.55 1007.11 1007.66 1008.31 1008.98 1009.84 1010.64 1011.45 1012.15 1012.82 1013.64 1014.49 1015.25 1015.96 1016.71 1017.47 1018.38 1019.21 1020.00 1021.00 1022.17 1023.20 1024.24 1025.04 1025.79 1026.75 1027.54 1028.50 1029.21
1006.37 1005.68 1005.01 1004.39 1004.03 1003.73 1003.60 1003.64 1003.70 1003.76 1004.05 1004.48 1004.94 1005.45 1006.05 1006.67 1007.33 1007.98 1008.70 1009.52 1010.37 1011.13 1011.86 1012.58 1013.34 1014.10 1014.95 1015.71 1016.37 1017.01 1017.64 1018.50 1019.47 1020.47 1021.35 1022.32 1023.38 1024.31 1025.16 1026.15 1026.92 1027.72 1028.55
1006.34 1005.67 1004.96 1004.29 1003.80 1003.57 1003.46 1003.42 1003.51 1003.68 1003.93 1004.27 1004.72 1005.18 1005.71 1006.35 1007.04 1007.76 1008.52 1009.28 1010.08 1010.84 1011.62 1012.28 1012.89 1013.57 1014.26 1014.92 1015.62 1016.34 1017.13 1018.01 1018.91 1019.81 1020.78 1021.69 1022.65 1023.48 1024.44 1025.40 1026.27 1027.21 1027.95
1006.42 1005.73 1005.01 1004.25 1003.67 1003.32 1003.21 1003.22 1003.28 1003.46 1003.73 1004.06 1004.48 1004.92 1005.38 1005.94 1006.62 1007.36 1008.08 1008.87 1009.66 1010.44 1011.17 1011.78 1012.32 1013.01 1013.80 1014.45 1015.16 1015.94 1016.77 1017.65 1018.43 1019.18 1020.12 1021.07 1022.04 1022.94 1023.80 1024.54 1025.42 1026.31 1027.10
Thickness
5490 5495 5498 5500 5504 5506 5513 5517 5522 5516 5526 5522 5523 5521 5518 5521 5524 5525 5525 5526 5525 5523 5523 5525 5517 5511 5506 5501 5499 5498 5493 5496 5482 5462 5455 5446 5441 5439 5434 5429 5428 5424 5418
5465 5467 5469 5474 5476 5479 5486 5489 5498 5497 5501 5504 5504 5503 5502 5505 5514 5516 5514 5517 5519 5517 5518 5517 5513 5510 5505 5498 5491 5490 5486 5483 5477 5459 5446 5441 5434 5431 5426 5418 5417 5411 5406
5450 5449 5451 5454 5454 5459 5463 5467 5469 5475 5476 5477 5478 5484 5487 5488 5496 5500 5506 5507 5508 5511 5511 5515 5511 5507 5493 5493 5489 5483 5474 5472 5461 5452 5441 5432 5423 5416 5411 5403 5399 5397 5392
5447 5444 5442 5444 5449 5453 5456 5459 5461 5460 5458 5458 5459 5462 5466 5469 5473 5477 5485 5493 5498 5499 5502 5503 5503 5503 5498 5490 5482 5473 5468 5459 5451 5438 5427 5424 5414 5405 5401 5396 5388 5388 5383
5442 5440 5440 5439 5440 5443 5447 5451 5452 5452 5451 5448 5447 5448 5452 5455 5459 5462 5465 5470 5483 5489 5490 5491 5494 5495 5500 5488 5479 5467 5459 5449 5436 5427 5414 5413 5402 5392 5387 5387 5379 5374 5373
5433 5432 5431 5431 5432 5434 5434 5435 5432 5434 5437 5439 5437 5439 5440 5444 5450 5449 5453 5455 5463 5475 5479 5483 5482 5482 5483 5476 5475 5465 5459 5446 5431 5424 5418 5413 5398 5389 5377 5379 5375 5367 5363
5426 5425 5424 5424 5423 5424 5423 5421 5414 5412 5416 5422 5427 5429 5433 5437 5438 5439 5439 5444 5449 5458 5462 5468 5467 5470 5470 5464 5459 5455 5452 5443 5440 5433 5418 5407 5396 5392 5380 5375 5366 5367 5359
5419 5419 5417 5415 5414 5413 5410 5406 5398 5397 5399 5403 5411 5420 5426 5430 5429 5430 5432 5436 5438 5450 5445 5452 5456 5453 5456 5452 5443 5441 5437 5427 5424 5425 5417 5406 5394 5385 5378 5371 5364 5356 5351
5414 5411 5409 5407 5406 5404 5401 5395 5388 5385 5386 5388 5395 5406 5414 5417 5420 5419 5421 5423 5428 5435 5432 5438 5443 5442 5442 5439 5431 5425 5419 5412 5408 5407 5403 5395 5389 5378 5375 5367 5354 5350 5344
5404 5402 5401 5399 5398 5395 5391 5386 5380 5376 5375 5377 5384 5393 5402 5406 5409 5411 5409 5412 5415 5416 5417 5421 5426 5429 5426 5429 5423 5416 5412 5401 5397 5390 5383 5378 5376 5372 5371 5365 5357 5352 5343
5398 5395 5393 5393 5390 5387 5382 5376 5373 5367 5364 5367 5372 5379 5387 5392 5394 5397 5400 5401 5404 5402 5401 5404 5407 5413 5413 5410 5413 5410 5404 5398 5385 5380 5371 5369 5365 5362 5358 5354 5353 5350 5339
5390 5388 5386 5386 5384 5380 5374 5369 5365 5359 5357 5357 5362 5366 5370 5375 5380 5383 5384 5390 5391 5393 5392 5394 5394 5395 5396 5394 5393 5392 5389 5386 5376 5366 5366 5361 5357 5352 5348 5346 5343 5337 5337
5382 5380 5379 5379 5378 5374 5369 5365 5360 5354 5350 5349 5351 5353 5357 5361 5366 5371 5373 5374 5375 5377 5378 5377 5375 5377 5375 5375 5375 5375 5376 5375 5367 5364 5363 5352 5345 5343 5340 5333 5329 5323 5323
5373 5371 5371 5371 5370 5368 5365 5361 5358 5352 5348 5344 5343 5345 5347 5350 5353 5356 5356 5358 5361 5361 5361 5361 5362 5363 5364 5362 5358 5360 5367 5364 5363 5363 5352 5342 5334 5330 5328 5326 5317 5313 5304
5367 5367 5366 5365 5365 5363 5360 5358 5356 5351 5347 5343 5339 5338 5340 5342 5344 5347 5348 5350 5351 5351 5349 5350 5353 5352 5350 5350 5351 5350 5356 5355 5354 5346 5342 5335 5324 5323 5317 5314 5309 5298 5293
5357 5359 5360 5360 5359 5359 5356 5355 5353 5351 5348 5344 5339 5337 5336 5338 5339 5341 5344 5346 5346 5347 5347 5346 5344 5346 5348 5349 5347 5343 5344 5347 5347 5339 5334 5328 5319 5314 5307 5300 5296 5292 5281
5349 5350 5352 5354 5355 5356 5355 5354 5351 5349 5349 5347 5343 5338 5337 5336 5336 5339 5341 5342 5342 5345 5346 5344 5345 5346 5342 5342 5341 5340 5339 5339 5341 5332 5325 5315 5307 5304 5299 5293 5287 5277 5268
5346 5346 5348 5351 5354 5354 5353 5353 5350 5349 5348 5347 5346 5345 5341 5339 5336 5337 5338 5337 5337 5339 5341 5342 5341 5339 5337 5336 5336 5336 5335 5331 5326 5320 5313 5305 5302 5298 5293 5284 5275 5270 5265
5342 5344 5344 5345 5348 5349 5349 5349 5349 5347 5346 5345 5343 5344 5345 5344 5343 5341 5340 5342 5339 5337 5337 5336 5335 5335 5333 5333 5333 5331 5328 5324 5318 5312 5306 5302 5296 5290 5281 5276 5269 5265 5259
5336 5337 5338 5338 5340 5341 5342 5343 5343 5344 5343 5342 5342 5342 5343 5342 5341 5340 5338 5338 5336 5335 5334 5332 5331 5331 5331 5330 5327 5324 5320 5316 5312 5306 5299 5293 5285 5280 5273 5269 5263 5257 5252
5330 5332 5333 5333 5334 5334 5334 5336 5338 5339 5339 5340 5339 5339 5340 5341 5338 5334 5333 5332 5333 5331 5331 5331 5329 5327 5326 5324 5323 5322 5319 5311 5304 5297 5291 5285 5279 5272 5269 5263 5255 5250 5244
5320 5324 5327 5327 5328 5327 5328 5330 5332 5334 5335 5336 5336 5335 5336 5336 5336 5335 5332 5332 5330 5330 5330 5329 5326 5326 5325 5324 5320 5315 5310 5303 5297 5291 5286 5279 5274 5269 5263 5255 5249 5242 5236
5308 5313 5318 5321 5321 5322 5323 5324 5325 5327 5329 5331 5332 5332 5333 5334 5335 5333 5333 5331 5330 5328 5327 5327 5324 5322 5320 5318 5315 5311 5306 5302 5298 5292 5284 5278 5270 5263 5257 5249 5243 5235 5229
5296 5301 5309 5314 5315 5315 5317 5317 5317 5318 5321 5323 5326 5328 5331 5332 5332 5331 5330 5328 5326 5325 5324 5323 5320 5318 5315 5313 5310 5308 5305 5300 5294 5288 5281 5275 5266 5259 5252 5244 5238 5231 5225
5287 5292 5299 5306 5310 5310 5310 5308 5307 5309 5312 5317 5319 5322 5325 5327 5326 5325 5324 5324 5322 5321 5319 5317 5316 5315 5313 5311 5309 5305 5301 5296 5290 5283 5276 5269 5262 5255 5248 5239 5232 5223 5217
5277 5283 5289 5297 5303 5306 5305 5303 5303 5304 5307 5311 5314 5318 5319 5322 5322 5321 5321 5320 5318 5316 5315 5314 5313 5312 5309 5306 5304 5300 5296 5289 5284 5278 5271 5264 5256 5249 5242 5236 5229 5222 5215